THY126 UUWW-LTFM

Flight info

Callsign THY126
Flight time N/A
Altitude 38000
Route K0872F380 POKAG3Z POKAG N858 VEPIS Y219 LAPKI N869 OSMUS Z369 BRT L856 TOSPO/N0468F380 DCT LUGUG DCT GAWOR/N0469F400 DCT ROBTU/N0465F390 DCT KENIN DCT LARMU DCT RUTUV DCT RONBU DCT BUVAK DCT EMO DCT VABUR DCT RIXEN RIXEN2A
Aircraft A333/H-SDE3GHIJ2J3J5M1RVWXY/LB2D1

Departure

Time N/A
Airport Vnukovo International Airport (UUWW)

Arrival

Time 2026-05-06 12:30
Airport İstanbul Airport (LTFM)
Time Latitude Longitude Altitude Speed Heading
2026-05-06 10:49 49.58006 22.41734 37895 ft 448 kts 193°
2026-05-06 10:50 49.54946 22.40780 37896 ft 448 kts 194°
2026-05-06 10:50 49.47843 22.38565 37905 ft 448 kts 194°
2026-05-06 10:51 49.42755 22.36985 37908 ft 449 kts 193°
2026-05-06 10:51 49.36634 22.35088 37900 ft 448 kts 195°
2026-05-06 10:52 49.30513 22.33195 37917 ft 450 kts 194°
2026-05-06 10:52 49.24355 22.31296 37918 ft 450 kts 194°
2026-05-06 10:53 49.18307 22.29007 37917 ft 445 kts 203°
2026-05-06 10:53 49.12950 22.24558 37925 ft 440 kts 220°
2026-05-06 10:54 49.08689 22.17964 37923 ft 435 kts 231°
2026-05-06 10:54 49.04870 22.10778 37921 ft 435 kts 233°
2026-05-06 10:55 49.01116 22.03548 37931 ft 435 kts 233°
2026-05-06 10:55 48.97356 21.96407 37927 ft 435 kts 232°
2026-05-06 10:56 48.93162 21.89769 37921 ft 438 kts 220°
2026-05-06 10:56 48.87866 21.85167 37919 ft 443 kts 202°
2026-05-06 10:57 48.81775 21.83419 37931 ft 452 kts 184°
2026-05-06 10:57 48.75468 21.84256 37924 ft 457 kts 175°
2026-05-06 10:58 48.69183 21.85671 37933 ft 459 kts 175°
2026-05-06 10:58 48.62857 21.87119 37939 ft 459 kts 175°
2026-05-06 10:59 48.56526 21.88494 37938 ft 459 kts 175°
2026-05-06 10:59 48.50193 21.89827 37939 ft 459 kts 176°
2026-05-06 11:00 48.43872 21.91132 37938 ft 459 kts 176°
2026-05-06 11:00 48.37596 21.93006 37946 ft 464 kts 165°
2026-05-06 11:01 48.31838 21.97446 37949 ft 472 kts 150°
2026-05-06 11:01 48.26473 22.03221 37944 ft 476 kts 147°
2026-05-06 11:02 48.21175 22.09230 37952 ft 477 kts 146°
2026-05-06 11:02 48.15898 22.15170 37953 ft 477 kts 147°
2026-05-06 11:03 48.10570 22.21085 37958 ft 477 kts 147°
2026-05-06 11:03 48.05219 22.26980 37957 ft 477 kts 147°
2026-05-06 11:04 47.99886 22.32848 37960 ft 478 kts 146°
2026-05-06 11:04 47.94525 22.38749 37961 ft 479 kts 147°
2026-05-06 11:05 47.89176 22.44610 37963 ft 480 kts 147°
2026-05-06 11:05 47.83795 22.50481 37963 ft 480 kts 147°
2026-05-06 11:06 47.78371 22.56379 37979 ft 479 kts 146°
2026-05-06 11:06 47.73013 22.62192 38083 ft 480 kts 146°
2026-05-06 11:06 47.70308 22.65120 38218 ft 481 kts 146°
2026-05-06 11:07 47.67601 22.68047 38322 ft 482 kts 147°
2026-05-06 11:07 47.62158 22.73920 38544 ft 484 kts 147°
2026-05-06 11:07 47.59434 22.76854 38700 ft 484 kts 146°
2026-05-06 11:08 47.56715 22.79779 38835 ft 483 kts 146°
2026-05-06 11:08 47.54002 22.82694 38954 ft 483 kts 146°
2026-05-06 11:08 47.51281 22.85613 38987 ft 481 kts 146°
2026-05-06 11:09 47.45867 22.91410 38985 ft 479 kts 146°
2026-05-06 11:09 47.40492 22.97147 38967 ft 479 kts 146°
2026-05-06 11:10 47.35077 23.02912 38964 ft 480 kts 146°
2026-05-06 11:10 47.29645 23.08683 38967 ft 480 kts 146°
2026-05-06 11:11 47.24235 23.14460 38964 ft 481 kts 145°
2026-05-06 11:11 47.18958 23.20531 38962 ft 481 kts 143°
2026-05-06 11:12 47.13765 23.26667 38958 ft 481 kts 143°
2026-05-06 11:12 47.08538 23.32803 38953 ft 481 kts 143°
2026-05-06 11:13 47.03279 23.38919 38953 ft 482 kts 143°
2026-05-06 11:13 46.98037 23.44985 38955 ft 482 kts 143°
2026-05-06 11:14 46.92765 23.51068 38962 ft 482 kts 143°
2026-05-06 11:14 46.87492 23.57137 38964 ft 482 kts 143°
2026-05-06 11:15 46.82217 23.63194 38965 ft 482 kts 143°
2026-05-06 11:15 46.76937 23.69241 38966 ft 483 kts 143°
2026-05-06 11:16 46.71645 23.75288 38966 ft 483 kts 143°
2026-05-06 11:16 46.66379 23.81288 38964 ft 483 kts 143°
2026-05-06 11:17 46.61081 23.87311 38958 ft 483 kts 143°
2026-05-06 11:17 46.55780 23.93321 38961 ft 483 kts 143°
2026-05-06 11:18 46.50475 23.99320 38955 ft 483 kts 143°
2026-05-06 11:18 46.45168 24.05305 38961 ft 484 kts 143°
2026-05-06 11:19 46.39872 24.11243 38964 ft 483 kts 143°
2026-05-06 11:19 46.34473 24.17066 38963 ft 483 kts 144°
2026-05-06 11:20 46.29042 24.22825 38963 ft 483 kts 144°
2026-05-06 11:20 46.23625 24.28567 38963 ft 483 kts 144°
2026-05-06 11:21 46.18239 24.34280 38962 ft 483 kts 144°
2026-05-06 11:21 46.12820 24.40022 38963 ft 483 kts 144°
2026-05-06 11:22 46.07402 24.45748 38964 ft 483 kts 144°
2026-05-06 11:22 46.01976 24.51468 38965 ft 483 kts 144°
2026-05-06 11:23 45.96550 24.57174 38962 ft 483 kts 144°
2026-05-06 11:23 45.91118 24.62871 38969 ft 484 kts 144°
2026-05-06 11:24 45.85674 24.68567 38971 ft 484 kts 144°
2026-05-06 11:24 45.80255 24.74222 38986 ft 485 kts 144°
2026-05-06 11:25 45.74802 24.79901 38990 ft 484 kts 144°
2026-05-06 11:25 45.69343 24.85569 38996 ft 484 kts 144°
2026-05-06 11:26 45.63886 24.91222 38995 ft 484 kts 144°
2026-05-06 11:26 45.58416 24.96874 39013 ft 485 kts 144°
2026-05-06 11:27 45.52981 25.02476 39011 ft 484 kts 144°
2026-05-06 11:27 45.47507 25.08105 39021 ft 484 kts 144°
2026-05-06 11:28 45.42037 25.13715 39021 ft 484 kts 144°
2026-05-06 11:28 45.36561 25.19318 39019 ft 484 kts 144°
2026-05-06 11:29 45.31084 25.24909 39029 ft 485 kts 144°
2026-05-06 11:29 45.25624 25.30469 39028 ft 485 kts 144°
2026-05-06 11:30 45.20126 25.36053 39033 ft 485 kts 144°
2026-05-06 11:30 45.14635 25.41616 39043 ft 485 kts 144°
2026-05-06 11:31 45.09178 25.47131 39032 ft 484 kts 144°
2026-05-06 11:31 45.03701 25.52654 39034 ft 485 kts 144°
2026-05-06 11:32 44.98199 25.58189 39032 ft 486 kts 144°
2026-05-06 11:32 44.92691 25.63717 39035 ft 486 kts 144°
2026-05-06 11:33 44.87188 25.69225 39029 ft 485 kts 144°
2026-05-06 11:33 44.81682 25.74724 39030 ft 485 kts 144°
2026-05-06 11:34 44.76171 25.80214 39035 ft 485 kts 144°
2026-05-06 11:34 44.70650 25.85702 39042 ft 486 kts 144°
2026-05-06 11:35 44.65167 25.91138 39046 ft 485 kts 144°
2026-05-06 11:35 44.59652 25.96594 39048 ft 485 kts 144°
2026-05-06 11:36 44.54126 26.02047 39050 ft 485 kts 144°
2026-05-06 11:36 44.49528 26.06575 39053 ft 486 kts 144°
2026-05-06 11:37 44.43983 26.12024 39046 ft 489 kts 144°
2026-05-06 11:37 44.37480 26.18399 39046 ft 491 kts 144°
2026-05-06 11:38 44.32789 26.22986 39039 ft 491 kts 144°
2026-05-06 11:38 44.27222 26.28419 39031 ft 491 kts 144°
2026-05-06 11:39 44.21636 26.33858 39022 ft 491 kts 145°
2026-05-06 11:39 44.16045 26.39289 39029 ft 492 kts 145°
2026-05-06 11:40 44.10428 26.44733 39027 ft 492 kts 145°
2026-05-06 11:40 44.04800 26.50159 39027 ft 492 kts 146°
2026-05-06 11:41 43.99087 26.55395 39027 ft 492 kts 147°
2026-05-06 11:41 43.93328 26.60540 39025 ft 492 kts 147°
2026-05-06 11:42 43.87557 26.65693 39034 ft 493 kts 147°
2026-05-06 11:42 43.81838 26.70811 39029 ft 493 kts 147°
2026-05-06 11:43 43.76074 26.75970 39032 ft 493 kts 147°
2026-05-06 11:43 43.70304 26.81123 39030 ft 493 kts 147°
2026-05-06 11:44 43.61648 26.88828 39040 ft 494 kts 147°
2026-05-06 11:44 43.55882 26.93943 39039 ft 494 kts 147°
2026-05-06 11:45 43.52990 26.96504 38862 ft 493 kts 147°
2026-05-06 11:45 43.50103 26.99059 38618 ft 492 kts 147°
2026-05-06 11:45 43.47213 27.01613 38337 ft 493 kts 147°
2026-05-06 11:45 43.44360 27.04131 38076 ft 493 kts 147°
2026-05-06 11:46 43.41467 27.06682 37795 ft 494 kts 147°
2026-05-06 11:46 43.38570 27.09234 37517 ft 495 kts 147°
2026-05-06 11:46 43.35665 27.11789 37249 ft 496 kts 147°
2026-05-06 11:46 43.32744 27.14356 36988 ft 497 kts 147°
2026-05-06 11:47 43.29860 27.16887 36737 ft 498 kts 147°
2026-05-06 11:47 43.26934 27.19452 36471 ft 498 kts 147°
2026-05-06 11:47 43.24004 27.22017 36205 ft 499 kts 147°
2026-05-06 11:47 43.21070 27.24583 35967 ft 500 kts 147°
2026-05-06 11:48 43.18131 27.27150 35712 ft 501 kts 147°
2026-05-06 11:48 43.15186 27.29720 35453 ft 502 kts 147°
2026-05-06 11:48 43.12238 27.32290 35214 ft 503 kts 147°
2026-05-06 11:48 43.09264 27.34879 34978 ft 504 kts 147°
2026-05-06 11:49 43.06337 27.37424 34741 ft 505 kts 147°
2026-05-06 11:49 43.03400 27.39975 34495 ft 506 kts 147°
2026-05-06 11:49 43.00431 27.42631 34287 ft 506 kts 142°
2026-05-06 11:49 42.97726 27.45716 34049 ft 506 kts 136°
2026-05-06 11:50 42.95162 27.48983 33768 ft 506 kts 135°
2026-05-06 11:50 42.92633 27.52340 33495 ft 506 kts 134°
2026-05-06 11:50 42.90129 27.55733 33223 ft 508 kts 133°
2026-05-06 11:50 42.87623 27.59156 32964 ft 509 kts 133°
2026-05-06 11:51 42.85116 27.62579 32693 ft 509 kts 133°
2026-05-06 11:51 42.82640 27.65949 32016 ft 509 kts 133°
2026-05-06 11:51 42.80122 27.69362 31138 ft 513 kts 133°
2026-05-06 11:51 42.77581 27.72792 30244 ft 516 kts 133°
2026-05-06 11:52 42.75003 27.76236 29203 ft 520 kts 135°
2026-05-06 11:52 42.72365 27.79558 28710 ft 512 kts 136°
2026-05-06 11:52 42.69718 27.82769 28014 ft 508 kts 137°
2026-05-06 11:52 42.67072 27.85925 27425 ft 503 kts 137°
2026-05-06 11:53 42.64487 27.88995 26828 ft 496 kts 137°
2026-05-06 11:53 42.61898 27.92075 26173 ft 492 kts 137°
2026-05-06 11:53 42.59328 27.95141 25514 ft 489 kts 137°
2026-05-06 11:53 42.56792 27.98175 24906 ft 485 kts 137°
2026-05-06 11:54 42.54272 28.01196 24284 ft 481 kts 137°
2026-05-06 11:54 42.51773 28.04202 23690 ft 476 kts 136°
2026-05-06 11:54 42.49552 28.07492 23030 ft 470 kts 129°
2026-05-06 11:54 42.47446 28.10833 22352 ft 460 kts 128°
2026-05-06 11:55 42.45448 28.14099 21740 ft 438 kts 128°
2026-05-06 11:55 42.43566 28.17242 21173 ft 419 kts 127°
2026-05-06 11:55 42.41771 28.20280 20619 ft 411 kts 126°
2026-05-06 11:55 42.39988 28.23330 20052 ft 414 kts 126°
2026-05-06 11:56 42.38200 28.26389 19476 ft 414 kts 126°
2026-05-06 11:56 42.36435 28.29396 18931 ft 413 kts 126°
2026-05-06 11:56 42.34642 28.32437 18379 ft 413 kts 127°
2026-05-06 11:56 42.32844 28.35470 18008 ft 415 kts 127°
2026-05-06 11:57 42.31028 28.38526 17728 ft 419 kts 127°
2026-05-06 11:57 42.29203 28.41590 17443 ft 418 kts 126°
2026-05-06 11:57 42.27381 28.44646 17191 ft 417 kts 126°
2026-05-06 11:57 42.25565 28.47688 16930 ft 415 kts 126°
2026-05-06 11:58 42.23756 28.50716 16672 ft 413 kts 126°
2026-05-06 11:58 42.21953 28.53731 16416 ft 412 kts 127°
2026-05-06 11:58 42.20158 28.56730 16166 ft 410 kts 127°
2026-05-06 11:58 42.18372 28.59711 15912 ft 408 kts 127°
2026-05-06 11:59 42.16583 28.62693 15655 ft 407 kts 127°
2026-05-06 11:59 42.14808 28.65650 15414 ft 405 kts 127°
2026-05-06 11:59 42.13040 28.68594 15176 ft 403 kts 127°
2026-05-06 11:59 42.11273 28.71531 14930 ft 402 kts 127°
2026-05-06 12:00 42.09479 28.74328 14683 ft 402 kts 135°
2026-05-06 12:00 42.07146 28.76412 14448 ft 404 kts 156°
2026-05-06 12:00 42.04414 28.77280 14221 ft 404 kts 176°
2026-05-06 12:00 42.01604 28.77319 13984 ft 403 kts 181°
2026-05-06 12:01 41.98788 28.77260 13720 ft 403 kts 180°
2026-05-06 12:01 41.95992 28.77251 13447 ft 401 kts 180°
2026-05-06 12:01 41.93203 28.77290 13185 ft 399 kts 179°
2026-05-06 12:01 41.90429 28.77360 12923 ft 397 kts 179°
2026-05-06 12:02 41.87668 28.77447 12674 ft 396 kts 179°
2026-05-06 12:02 41.84952 28.77541 12410 ft 394 kts 178°
2026-05-06 12:02 41.82223 28.77640 12155 ft 393 kts 179°
2026-05-06 12:02 41.79490 28.77488 11894 ft 391 kts 189°
2026-05-06 12:03 41.76895 28.76464 11639 ft 387 kts 207°
2026-05-06 12:03 41.74667 28.74503 11390 ft 381 kts 225°
2026-05-06 12:03 41.72919 28.71865 11145 ft 377 kts 235°
2026-05-06 12:03 41.71367 28.69035 10904 ft 375 kts 237°
2026-05-06 12:04 41.69852 28.66202 10653 ft 374 kts 237°
2026-05-06 12:04 41.68357 28.63420 10405 ft 372 kts 237°
2026-05-06 12:04 41.66840 28.60617 10176 ft 371 kts 237°
2026-05-06 12:04 41.65324 28.57840 10004 ft 370 kts 237°
2026-05-06 12:05 41.63807 28.55069 9998 ft 367 kts 237°
2026-05-06 12:05 41.62328 28.52376 10006 ft 356 kts 237°
2026-05-06 12:05 41.60846 28.49670 9994 ft 366 kts 237°
2026-05-06 12:05 41.59369 28.46980 9999 ft 348 kts 237°
2026-05-06 12:06 41.57924 28.44350 9995 ft 359 kts 237°
2026-05-06 12:06 41.56453 28.41669 9988 ft 351 kts 237°
2026-05-06 12:06 41.55074 28.39169 10008 ft 348 kts 237°
2026-05-06 12:06 41.53600 28.36498 9979 ft 357 kts 236°
2026-05-06 12:07 41.52148 28.33929 9990 ft 337 kts 236°
2026-05-06 12:07 41.50728 28.31425 9982 ft 354 kts 236°
2026-05-06 12:07 41.49272 28.28857 9985 ft 340 kts 236°
2026-05-06 12:07 41.47860 28.26376 9992 ft 344 kts 236°
2026-05-06 12:08 41.46411 28.23820 9975 ft 346 kts 236°
2026-05-06 12:08 41.44989 28.21327 10003 ft 336 kts 236°
2026-05-06 12:08 41.43535 28.18764 9971 ft 347 kts 236°
2026-05-06 12:08 41.42122 28.16282 9983 ft 323 kts 237°
2026-05-06 12:09 41.40764 28.13940 9988 ft 329 kts 233°
2026-05-06 12:09 41.39022 28.11772 9965 ft 349 kts 216°
2026-05-06 12:09 41.36879 28.10435 9982 ft 334 kts 197°
2026-05-06 12:09 41.34505 28.10004 9977 ft 361 kts 182°
2026-05-06 12:10 41.31987 28.10006 9969 ft 353 kts 179°
2026-05-06 12:10 41.29579 28.10081 9990 ft 347 kts 179°
2026-05-06 12:10 41.27113 28.09990 9963 ft 361 kts 188°
2026-05-06 12:10 41.24794 28.09049 9973 ft 338 kts 209°
2026-05-06 12:11 41.22857 28.07224 9970 ft 355 kts 225°
2026-05-06 12:11 41.21056 28.04954 9954 ft 348 kts 227°
2026-05-06 12:11 41.19360 28.02751 9983 ft 342 kts 225°
2026-05-06 12:11 41.17411 28.00819 9956 ft 347 kts 214°
2026-05-06 12:12 41.15366 27.99225 9981 ft 343 kts 212°
2026-05-06 12:12 41.13242 27.97640 9956 ft 345 kts 211°
2026-05-06 12:12 41.11163 27.96180 9981 ft 340 kts 206°
2026-05-06 12:12 41.08856 27.95114 9954 ft 349 kts 197°
2026-05-06 12:13 41.06619 27.94338 9978 ft 321 kts 195°
2026-05-06 12:13 41.04419 27.93607 9964 ft 338 kts 195°
2026-05-06 12:13 41.02106 27.92933 9965 ft 334 kts 188°
2026-05-06 12:13 40.99849 27.92766 9979 ft 317 kts 181°
2026-05-06 12:14 40.97680 27.92908 9964 ft 309 kts 169°
2026-05-06 12:14 40.95675 27.93874 9801 ft 307 kts 146°
2026-05-06 12:14 40.94193 27.95827 9453 ft 299 kts 118°
2026-05-06 12:14 40.93481 27.98349 9160 ft 290 kts 94°
2026-05-06 12:15 40.93502 28.00988 8866 ft 285 kts 80°
2026-05-06 12:15 40.93778 28.03578 8597 ft 285 kts 77°
2026-05-06 12:15 40.94084 28.06155 8333 ft 284 kts 77°
2026-05-06 12:15 40.94380 28.08706 8056 ft 283 kts 78°
2026-05-06 12:16 40.94668 28.11281 7784 ft 282 kts 78°
2026-05-06 12:16 40.94950 28.13854 7509 ft 281 kts 78°
2026-05-06 12:16 40.95226 28.16415 7240 ft 281 kts 79°
2026-05-06 12:16 40.95490 28.18934 6980 ft 280 kts 79°
2026-05-06 12:17 40.95757 28.21483 6706 ft 279 kts 79°
2026-05-06 12:17 40.96024 28.24028 6419 ft 278 kts 79°
2026-05-06 12:17 40.96288 28.26554 6142 ft 277 kts 79°
2026-05-06 12:17 40.96553 28.29075 5884 ft 276 kts 79°
2026-05-06 12:18 40.96815 28.31586 5608 ft 275 kts 80°
2026-05-06 12:18 40.97077 28.34086 5341 ft 274 kts 80°
2026-05-06 12:18 40.97336 28.36573 5071 ft 271 kts 80°
2026-05-06 12:18 40.97525 28.39016 4934 ft 269 kts 85°
2026-05-06 12:19 40.97568 28.41504 4976 ft 271 kts 87°
2026-05-06 12:19 40.97575 28.44005 4983 ft 271 kts 87°
2026-05-06 12:19 40.97578 28.46499 4984 ft 271 kts 86°
2026-05-06 12:19 40.97584 28.48989 4986 ft 271 kts 87°
2026-05-06 12:20 40.97590 28.51484 4984 ft 271 kts 87°
2026-05-06 12:20 40.97596 28.53983 4986 ft 272 kts 87°
2026-05-06 12:20 40.97600 28.56489 4990 ft 272 kts 87°
2026-05-06 12:20 40.97602 28.58140 4991 ft 272 kts 87°
2026-05-06 12:21 40.97605 28.60647 4994 ft 272 kts 87°
2026-05-06 12:21 40.97607 28.63143 4987 ft 271 kts 87°
2026-05-06 12:21 40.97606 28.65587 4994 ft 257 kts 87°
2026-05-06 12:21 40.97604 28.67894 4998 ft 243 kts 87°
2026-05-06 12:22 40.97697 28.70063 4992 ft 228 kts 75°
2026-05-06 12:22 40.98331 28.71899 4995 ft 217 kts 46°
2026-05-06 12:22 40.99507 28.73018 5011 ft 200 kts 18°
2026-05-06 12:22 41.00794 28.73304 5011 ft 182 kts
2026-05-06 12:23 41.02022 28.73302 4997 ft 174 kts 358°
2026-05-06 12:23 41.03210 28.73304 4873 ft 164 kts 358°
2026-05-06 12:23 41.04305 28.73289 4690 ft 151 kts 358°
2026-05-06 12:23 41.05328 28.73260 4494 ft 145 kts 358°
2026-05-06 12:24 41.06340 28.73235 4266 ft 146 kts 358°
2026-05-06 12:24 41.07359 28.73212 4040 ft 147 kts 358°
2026-05-06 12:24 41.08382 28.73189 3850 ft 144 kts 358°
2026-05-06 12:24 41.09354 28.73167 3656 ft 137 kts 358°
2026-05-06 12:25 41.10301 28.73145 3481 ft 136 kts 358°
2026-05-06 12:25 41.11247 28.73122 3298 ft 136 kts 358°
2026-05-06 12:25 41.12192 28.73100 3106 ft 135 kts 358°
2026-05-06 12:25 41.13137 28.73079 2930 ft 136 kts 358°
2026-05-06 12:26 41.14079 28.73057 2754 ft 135 kts 359°
2026-05-06 12:26 41.15019 28.73035 2559 ft 135 kts 358°
2026-05-06 12:26 41.15961 28.73010 2378 ft 134 kts 359°
2026-05-06 12:26 41.16900 28.72992 2216 ft 144 kts 359°
2026-05-06 12:27 41.17911 28.72968 1999 ft 141 kts 359°
2026-05-06 12:27 41.18887 28.72948 1779 ft 139 kts 357°
2026-05-06 12:27 41.19856 28.72942 1562 ft 136 kts 358°
2026-05-06 12:27 41.20793 28.72922 1391 ft 133 kts 353°
2026-05-06 12:28 41.21720 28.72878 1220 ft 133 kts 358°
2026-05-06 12:28 41.22640 28.72851 1089 ft 132 kts
2026-05-06 12:28 41.23563 28.72829 858 ft 133 kts
2026-05-06 12:28 41.24474 28.72823 728 ft 129 kts 360°
2026-05-06 12:29 41.25329 28.72796 560 ft 128 kts 360°
2026-05-06 12:29 41.26211 28.72767 387 ft 126 kts
2026-05-06 12:29 41.27025 28.72762 337 ft 103 kts 359°
2026-05-06 12:29 41.27643 28.72745 337 ft 78 kts 359°
2026-05-06 12:30 41.28113 28.72735 333 ft 60 kts 359°
2026-05-06 12:30 41.28372 28.72808 335 ft 30 kts 26°
2026-05-06 12:30 41.28456 28.72915 333 ft 1 kts 103°
2026-05-06 12:30 41.28455 28.72920 333 ft 1 kts 104°
2026-05-06 12:31 41.28451 28.72939 335 ft 3 kts 104°
2026-05-06 12:31 41.28445 28.72972 337 ft 4 kts 105°
2026-05-06 12:31 41.28437 28.73005 335 ft 0 kts 110°
2026-05-06 12:31 41.28437 28.73006 335 ft 0 kts 111°
2026-05-06 12:32 41.28421 28.73010 332 ft 6 kts 168°
2026-05-06 12:32 41.28402 28.73005 334 ft 1 kts 204°
2026-05-06 12:32 41.28396 28.73001 333 ft 4 kts 204°
2026-05-06 12:32 41.28339 28.72971 335 ft 17 kts 199°
2026-05-06 12:33 41.28190 28.72959 332 ft 23 kts 179°
2026-05-06 12:33 41.28029 28.72962 334 ft 23 kts 179°
2026-05-06 12:33 41.27866 28.72966 334 ft 24 kts 179°
2026-05-06 12:33 41.27696 28.72971 337 ft 25 kts 179°
2026-05-06 12:34 41.27524 28.72974 336 ft 25 kts 179°
2026-05-06 12:34 41.27346 28.72977 333 ft 25 kts 179°
2026-05-06 12:34 41.27171 28.72982 333 ft 26 kts 179°
2026-05-06 12:34 41.26990 28.72987 334 ft 24 kts 179°
2026-05-06 12:35 41.26890 28.72992 334 ft 1 kts 170°
2026-05-06 12:35 41.26874 28.73015 332 ft 8 kts 119°
2026-05-06 12:35 41.26867 28.73104 335 ft 11 kts 90°
2026-05-06 12:35 41.26867 28.73204 335 ft 11 kts 90°
2026-05-06 12:36 41.26868 28.73304 335 ft 8 kts 90°
2026-05-06 12:36 41.26868 28.73384 334 ft 9 kts 89°
2026-05-06 12:36 41.26838 28.73439 333 ft 7 kts 166°
2026-05-06 12:36 41.26818 28.73440 336 ft 0 kts 177°
2026-05-06 12:37 41.26810 28.73441 336 ft 2 kts 178°
2026-05-06 12:37 41.26789 28.73442 334 ft 4 kts 179°
2026-05-06 12:37 41.26777 28.73442 334 ft 1 kts 179°
2026-05-06 12:37 41.26776 28.73442 334 ft 0 kts 179°